Time,TemperatureF,DewpointF,PressureIn,WindDirection,WindDirectionDegrees,WindSpeedMPH,WindSpeedGustMPH,Humidity,HourlyPrecipIn,Conditions,Clouds,dailyrainin,SoftwareType,DateUTC
2013-10-07 00:03:00,42.2,32.0,25.91,WNW,292,4.9,7.0,66,0.00,,,0.00,Rainwise IP-100,2013-10-07 06:03:00,
2013-10-07 00:08:00,42.1,32.0,25.92,West,270,3.5,6.0,67,0.00,,,0.00,Rainwise IP-100,2013-10-07 06:08:00,
2013-10-07 00:13:00,42.2,32.0,25.91,West,270,3.5,4.0,67,0.00,,,0.00,Rainwise IP-100,2013-10-07 06:13:00,
2013-10-07 00:18:00,42.1,32.0,25.91,WNW,292,4.4,5.0,67,0.00,,,0.00,Rainwise IP-100,2013-10-07 06:18:00,
2013-10-07 00:23:00,41.9,32.0,25.91,NNW,337,3.5,5.0,67,0.00,,,0.00,Rainwise IP-100,2013-10-07 06:23:00,
2013-10-07 00:28:00,41.6,32.0,25.91,NW,315,4.4,7.0,68,0.00,,,0.00,Rainwise IP-100,2013-10-07 06:28:00,
2013-10-07 00:33:00,41.7,32.0,25.91,WNW,292,5.8,7.0,68,0.00,,,0.00,Rainwise IP-100,2013-10-07 06:33:00,
2013-10-07 00:38:00,42.1,32.0,25.91,WNW,292,3.7,7.0,68,0.00,,,0.00,Rainwise IP-100,2013-10-07 06:38:00,
2013-10-07 00:43:00,42.1,32.0,25.91,NW,315,5.1,7.0,68,0.00,,,0.00,Rainwise IP-100,2013-10-07 06:43:00,
2013-10-07 00:48:00,42.0,32.0,25.90,WNW,292,4.7,7.0,68,0.00,,,0.00,Rainwise IP-100,2013-10-07 06:48:00,
2013-10-07 00:53:00,41.7,32.0,25.91,West,270,3.0,6.0,68,0.00,,,0.00,Rainwise IP-100,2013-10-07 06:53:00,
2013-10-07 00:58:00,40.6,32.0,25.91,WSW,247,6.5,6.5,69,0.00,,,0.00,Rainwise IP-100,2013-10-07 06:58:00,
2013-10-07 01:03:00,39.6,32.0,25.91,West,270,4.4,7.0,71,0.00,,,0.00,Rainwise IP-100,2013-10-07 07:03:00,
2013-10-07 01:08:00,39.6,32.0,25.91,WNW,292,4.0,6.0,71,0.00,,,0.00,Rainwise IP-100,2013-10-07 07:08:00,
2013-10-07 01:13:00,39.9,32.0,25.91,WNW,292,6.5,7.0,72,0.00,,,0.00,Rainwise IP-100,2013-10-07 07:13:00,
2013-10-07 01:18:00,39.9,32.0,25.91,WNW,292,6.1,8.0,72,0.00,,,0.00,Rainwise IP-100,2013-10-07 07:18:00,
2013-10-07 01:23:00,39.7,32.0,25.91,WNW,292,3.3,7.0,72,0.00,,,0.00,Rainwise IP-100,2013-10-07 07:23:00,
2013-10-07 01:28:00,39.3,32.0,25.90,WNW,292,4.0,7.0,73,0.00,,,0.00,Rainwise IP-100,2013-10-07 07:28:00,
2013-10-07 01:33:00,38.9,32.0,25.91,WNW,292,4.2,5.0,73,0.00,,,0.00,Rainwise IP-100,2013-10-07 07:33:00,
2013-10-07 01:38:00,38.5,32.0,25.91,West,270,3.7,5.0,74,0.00,,,0.00,Rainwise IP-100,2013-10-07 07:38:00,
2013-10-07 01:43:00,38.2,31.0,25.90,WNW,292,4.7,6.0,74,0.00,,,0.00,Rainwise IP-100,2013-10-07 07:43:00,
2013-10-07 01:48:00,38.0,31.0,25.91,West,270,4.9,6.0,74,0.00,,,0.00,Rainwise IP-100,2013-10-07 07:48:00,
2013-10-07 01:53:00,38.0,31.0,25.90,WNW,292,4.2,5.0,75,0.00,,,0.00,Rainwise IP-100,2013-10-07 07:53:00,
2013-10-07 01:58:00,37.9,31.0,25.90,WNW,292,5.8,6.0,75,0.00,,,0.00,Rainwise IP-100,2013-10-07 07:58:00,
2013-10-07 02:03:00,37.8,31.0,25.90,WNW,292,4.2,6.0,75,0.00,,,0.00,Rainwise IP-100,2013-10-07 08:03:00,
2013-10-07 02:08:00,37.8,31.0,25.90,WNW,292,4.9,5.0,76,0.00,,,0.00,Rainwise IP-100,2013-10-07 08:08:00,
2013-10-07 02:13:00,37.6,31.0,25.90,West,270,2.8,6.0,76,0.00,,,0.00,Rainwise IP-100,2013-10-07 08:13:00,
2013-10-07 02:18:00,37.5,31.0,25.89,WNW,292,5.1,5.1,76,0.00,,,0.00,Rainwise IP-100,2013-10-07 08:18:00,
2013-10-07 02:23:00,37.4,31.0,25.90,WNW,292,5.1,6.0,76,0.00,,,0.00,Rainwise IP-100,2013-10-07 08:23:00,
2013-10-07 02:28:00,37.6,31.0,25.89,WNW,292,4.0,5.0,76,0.00,,,0.00,Rainwise IP-100,2013-10-07 08:28:00,
2013-10-07 02:33:00,38.0,31.0,25.89,WNW,292,3.0,6.0,76,0.00,,,0.00,Rainwise IP-100,2013-10-07 08:33:00,
2013-10-07 02:38:00,38.1,31.0,25.90,West,270,4.9,7.0,76,0.00,,,0.00,Rainwise IP-100,2013-10-07 08:38:00,
2013-10-07 02:43:00,37.8,31.0,25.89,WNW,292,4.4,5.0,76,0.00,,,0.00,Rainwise IP-100,2013-10-07 08:43:00,
2013-10-07 02:48:00,37.4,31.0,25.89,WSW,247,5.4,6.0,76,0.00,,,0.00,Rainwise IP-100,2013-10-07 08:48:00,
2013-10-07 02:53:00,37.1,31.0,25.89,WNW,292,4.2,6.0,76,0.00,,,0.00,Rainwise IP-100,2013-10-07 08:53:00,
2013-10-07 02:58:00,37.0,31.0,25.89,West,270,4.2,6.0,77,0.00,,,0.00,Rainwise IP-100,2013-10-07 08:58:00,
2013-10-07 03:03:00,37.0,31.0,25.89,WNW,292,4.2,9.0,78,0.00,,,0.00,Rainwise IP-100,2013-10-07 09:03:00,
2013-10-07 03:08:00,37.0,31.0,25.89,WNW,292,3.7,6.0,78,0.00,,,0.00,Rainwise IP-100,2013-10-07 09:08:00,
2013-10-07 03:13:00,37.0,31.0,25.89,WNW,292,4.2,4.2,78,0.00,,,0.00,Rainwise IP-100,2013-10-07 09:13:00,
2013-10-07 03:18:00,36.9,31.0,25.89,WNW,292,3.7,4.0,78,0.00,,,0.00,Rainwise IP-100,2013-10-07 09:18:00,
2013-10-07 03:23:00,36.7,31.0,25.89,WNW,292,4.7,6.0,79,0.00,,,0.00,Rainwise IP-100,2013-10-07 09:23:00,
2013-10-07 03:28:00,36.6,31.0,25.89,WNW,292,4.0,6.0,79,0.00,,,0.00,Rainwise IP-100,2013-10-07 09:28:00,
2013-10-07 03:33:00,36.4,31.0,25.89,WNW,292,4.0,5.0,79,0.00,,,0.00,Rainwise IP-100,2013-10-07 09:33:00,
2013-10-07 03:38:00,36.2,31.0,25.89,WNW,292,4.4,5.0,79,0.00,,,0.00,Rainwise IP-100,2013-10-07 09:38:00,
2013-10-07 03:43:00,36.1,31.0,25.88,WNW,292,3.0,5.0,80,0.00,,,0.00,Rainwise IP-100,2013-10-07 09:43:00,
2013-10-07 03:48:00,36.1,31.0,25.89,WNW,292,5.4,5.4,80,0.00,,,0.00,Rainwise IP-100,2013-10-07 09:48:00,
2013-10-07 03:53:00,36.0,31.0,25.88,WNW,292,4.4,6.0,80,0.00,,,0.00,Rainwise IP-100,2013-10-07 09:53:00,
2013-10-07 03:58:00,35.8,31.0,25.88,WNW,292,1.6,5.0,80,0.00,,,0.00,Rainwise IP-100,2013-10-07 09:58:00,
2013-10-07 04:03:00,35.7,31.0,25.88,WNW,292,6.1,6.1,80,0.00,,,0.00,Rainwise IP-100,2013-10-07 10:03:00,
2013-10-07 04:08:00,35.7,31.0,25.88,WNW,292,3.7,6.0,80,0.00,,,0.00,Rainwise IP-100,2013-10-07 10:08:00,
2013-10-07 04:13:00,35.7,31.0,25.88,WNW,292,2.3,4.0,80,0.00,,,0.00,Rainwise IP-100,2013-10-07 10:13:00,
2013-10-07 04:18:00,35.8,31.0,25.88,WNW,292,2.3,5.0,80,0.00,,,0.00,Rainwise IP-100,2013-10-07 10:18:00,
2013-10-07 04:23:00,35.9,31.0,25.88,West,270,4.2,5.0,81,0.00,,,0.00,Rainwise IP-100,2013-10-07 10:23:00,
2013-10-07 04:28:00,35.9,31.0,25.87,West,270,2.6,5.0,81,0.00,,,0.00,Rainwise IP-100,2013-10-07 10:28:00,
2013-10-07 04:33:00,35.9,31.0,25.88,West,270,3.7,5.0,81,0.00,,,0.00,Rainwise IP-100,2013-10-07 10:33:00,
2013-10-07 04:38:00,35.9,31.0,25.88,WNW,292,5.4,6.0,81,0.00,,,0.00,Rainwise IP-100,2013-10-07 10:38:00,
2013-10-07 04:43:00,35.8,31.0,25.88,WNW,292,4.9,6.0,81,0.00,,,0.00,Rainwise IP-100,2013-10-07 10:43:00,
2013-10-07 04:48:00,35.8,31.0,25.87,WNW,292,5.8,6.0,81,0.00,,,0.00,Rainwise IP-100,2013-10-07 10:48:00,
2013-10-07 04:53:00,35.9,31.0,25.87,WNW,292,5.6,7.0,81,0.00,,,0.00,Rainwise IP-100,2013-10-07 10:53:00,
2013-10-07 04:58:00,35.7,31.0,25.88,WNW,292,4.4,6.0,81,0.00,,,0.00,Rainwise IP-100,2013-10-07 10:58:00,
2013-10-07 05:03:00,35.5,31.0,25.88,WNW,292,5.1,6.0,81,0.00,,,0.00,Rainwise IP-100,2013-10-07 11:03:00,
2013-10-07 05:08:00,35.5,31.0,25.87,West,270,3.7,7.0,81,0.00,,,0.00,Rainwise IP-100,2013-10-07 11:08:00,
2013-10-07 05:13:00,35.4,29.0,25.88,WNW,292,4.7,6.0,81,0.00,,,0.00,Rainwise IP-100,2013-10-07 11:13:00,
2013-10-07 05:18:00,35.3,29.0,25.87,WNW,292,4.2,6.0,81,0.00,,,0.00,Rainwise IP-100,2013-10-07 11:18:00,
2013-10-07 05:23:00,35.2,29.0,25.87,WNW,292,3.7,5.0,81,0.00,,,0.00,Rainwise IP-100,2013-10-07 11:23:00,
2013-10-07 05:28:00,34.9,29.0,25.87,WNW,292,2.6,4.0,81,0.00,,,0.00,Rainwise IP-100,2013-10-07 11:28:00,
2013-10-07 05:33:00,34.7,29.0,25.87,WNW,292,3.3,4.0,81,0.00,,,0.00,Rainwise IP-100,2013-10-07 11:33:00,
2013-10-07 05:38:00,34.4,29.0,25.88,WNW,292,4.0,5.0,82,0.00,,,0.00,Rainwise IP-100,2013-10-07 11:38:00,
2013-10-07 05:43:00,34.1,29.0,25.87,WNW,292,3.5,5.0,82,0.00,,,0.00,Rainwise IP-100,2013-10-07 11:43:00,
2013-10-07 05:48:00,34.0,29.0,25.87,WNW,292,3.7,5.0,82,0.00,,,0.00,Rainwise IP-100,2013-10-07 11:48:00,
2013-10-07 05:53:00,34.0,31.0,25.87,WNW,292,2.6,5.0,83,0.00,,,0.00,Rainwise IP-100,2013-10-07 11:53:00,
2013-10-07 05:58:00,33.9,31.0,25.87,WNW,292,2.6,4.0,83,0.00,,,0.00,Rainwise IP-100,2013-10-07 11:58:00,
2013-10-07 06:03:00,33.9,31.0,25.87,WNW,292,2.3,4.0,83,0.00,,,0.00,Rainwise IP-100,2013-10-07 12:03:00,
2013-10-07 06:08:00,33.8,31.0,25.87,WNW,292,4.2,5.0,84,0.00,,,0.00,Rainwise IP-100,2013-10-07 12:08:00,
2013-10-07 06:13:00,33.8,31.0,25.86,WNW,292,3.3,4.0,84,0.00,,,0.00,Rainwise IP-100,2013-10-07 12:13:00,
2013-10-07 06:18:00,33.9,31.0,25.87,WNW,292,5.1,5.1,84,0.00,,,0.00,Rainwise IP-100,2013-10-07 12:18:00,
2013-10-07 06:23:00,34.1,31.0,25.87,WNW,292,4.0,5.0,84,0.00,,,0.00,Rainwise IP-100,2013-10-07 12:23:00,
2013-10-07 06:28:00,34.2,31.0,25.87,WNW,292,5.1,5.1,83,0.00,,,0.00,Rainwise IP-100,2013-10-07 12:28:00,
2013-10-07 06:33:00,34.1,31.0,25.87,WNW,292,4.9,5.0,83,0.00,,,0.00,Rainwise IP-100,2013-10-07 12:33:00,
2013-10-07 06:38:00,34.0,31.0,25.87,WNW,292,3.7,5.0,83,0.00,,,0.00,Rainwise IP-100,2013-10-07 12:38:00,
2013-10-07 06:43:00,33.8,31.0,25.87,WNW,292,3.0,5.0,84,0.00,,,0.00,Rainwise IP-100,2013-10-07 12:43:00,
2013-10-07 06:48:00,33.8,31.0,25.87,West,270,4.2,4.2,84,0.00,,,0.00,Rainwise IP-100,2013-10-07 12:48:00,
2013-10-07 06:53:00,33.8,31.0,25.87,WNW,292,1.4,4.0,84,0.00,,,0.00,Rainwise IP-100,2013-10-07 12:53:00,
2013-10-07 06:58:00,33.8,31.0,25.87,West,270,2.8,4.0,84,0.00,,,0.00,Rainwise IP-100,2013-10-07 12:58:00,
2013-10-07 07:03:00,33.8,31.0,25.87,West,270,3.3,4.0,84,0.00,,,0.00,Rainwise IP-100,2013-10-07 13:03:00,
2013-10-07 07:08:00,33.9,31.0,25.87,WNW,292,3.0,4.0,84,0.00,,,0.00,Rainwise IP-100,2013-10-07 13:08:00,
2013-10-07 07:13:00,34.2,31.0,25.87,WNW,292,2.6,4.0,83,0.00,,,0.00,Rainwise IP-100,2013-10-07 13:13:00,
2013-10-07 07:18:00,34.5,31.0,25.87,WNW,292,3.5,4.0,83,0.00,,,0.00,Rainwise IP-100,2013-10-07 13:18:00,
2013-10-07 07:23:00,34.6,31.0,25.87,WNW,292,1.6,4.0,83,0.00,,,0.00,Rainwise IP-100,2013-10-07 13:23:00,
2013-10-07 07:28:00,34.9,29.0,25.87,WNW,292,1.9,4.0,82,0.00,,,0.00,Rainwise IP-100,2013-10-07 13:28:00,
2013-10-07 07:33:00,35.4,29.0,25.87,WNW,292,1.2,3.0,82,0.00,,,0.00,Rainwise IP-100,2013-10-07 13:33:00,
2013-10-07 07:38:00,36.0,31.0,25.88,WNW,292,2.1,3.0,81,0.00,,,0.00,Rainwise IP-100,2013-10-07 13:38:00,
2013-10-07 07:43:00,36.7,32.0,25.88,WNW,292,2.6,4.0,80,0.00,,,0.00,Rainwise IP-100,2013-10-07 13:43:00,
2013-10-07 07:48:00,37.7,32.0,25.88,WNW,292,3.7,4.0,80,0.00,,,0.00,Rainwise IP-100,2013-10-07 13:48:00,
2013-10-07 07:53:00,38.8,33.0,25.88,WNW,292,3.0,5.0,79,0.00,,,0.00,Rainwise IP-100,2013-10-07 13:53:00,
2013-10-07 07:58:00,39.9,33.0,25.88,WNW,292,4.4,5.0,77,0.00,,,0.00,Rainwise IP-100,2013-10-07 13:58:00,
2013-10-07 08:03:00,41.0,35.0,25.88,WNW,292,2.8,4.0,76,0.00,,,0.00,Rainwise IP-100,2013-10-07 14:03:00,
2013-10-07 08:08:00,42.2,35.0,25.88,WNW,292,2.1,5.0,74,0.00,,,0.00,Rainwise IP-100,2013-10-07 14:08:00,
2013-10-07 08:13:00,43.4,35.0,25.88,WNW,292,1.9,4.0,73,0.00,,,0.00,Rainwise IP-100,2013-10-07 14:13:00,
2013-10-07 08:18:00,44.4,36.0,25.89,WNW,292,3.5,4.0,71,0.00,,,0.00,Rainwise IP-100,2013-10-07 14:18:00,
2013-10-07 08:23:00,45.6,36.0,25.88,WNW,292,3.0,3.0,69,0.00,,,0.00,Rainwise IP-100,2013-10-07 14:23:00,
2013-10-07 08:28:00,46.7,36.0,25.88,WNW,292,1.2,3.0,67,0.00,,,0.00,Rainwise IP-100,2013-10-07 14:28:00,
2013-10-07 08:33:00,47.7,36.0,25.89,WNW,292,1.4,2.0,65,0.00,,,0.00,Rainwise IP-100,2013-10-07 14:33:00,
2013-10-07 08:38:00,48.8,37.0,25.88,WSW,247,0.0,3.0,63,0.00,,,0.00,Rainwise IP-100,2013-10-07 14:38:00,
2013-10-07 08:43:00,49.7,37.0,25.89,WSW,247,0.0,2.0,61,0.00,,,0.00,Rainwise IP-100,2013-10-07 14:43:00,
2013-10-07 08:48:00,50.7,37.0,25.88,WSW,247,3.0,3.0,59,0.00,,,0.00,Rainwise IP-100,2013-10-07 14:48:00,
2013-10-07 08:53:00,51.6,37.0,25.88,WSW,247,4.4,4.4,56,0.00,,,0.00,Rainwise IP-100,2013-10-07 14:53:00,
2013-10-07 08:58:00,52.3,36.0,25.89,WSW,247,2.6,4.0,54,0.00,,,0.00,Rainwise IP-100,2013-10-07 14:58:00,
2013-10-07 09:03:00,52.9,36.0,25.88,WSW,247,0.0,5.0,52,0.00,,,0.00,Rainwise IP-100,2013-10-07 15:03:00,
2013-10-07 09:08:00,53.8,36.0,25.89,WSW,247,6.1,6.1,51,0.00,,,0.00,Rainwise IP-100,2013-10-07 15:08:00,
2013-10-07 09:13:00,54.5,37.0,25.88,SSW,202,4.4,6.0,50,0.00,,,0.00,Rainwise IP-100,2013-10-07 15:13:00,
2013-10-07 09:18:00,54.8,36.0,25.88,SSW,202,0.0,6.0,48,0.00,,,0.00,Rainwise IP-100,2013-10-07 15:18:00,
2013-10-07 09:23:00,55.5,36.0,25.88,South,180,4.2,7.0,47,0.00,,,0.00,Rainwise IP-100,2013-10-07 15:23:00,
2013-10-07 09:28:00,56.4,36.0,25.88,SSW,202,3.3,7.0,46,0.00,,,0.00,Rainwise IP-100,2013-10-07 15:28:00,
2013-10-07 09:33:00,57.4,37.0,25.88,SSW,202,2.8,9.0,45,0.00,,,0.00,Rainwise IP-100,2013-10-07 15:33:00,
2013-10-07 09:38:00,58.4,36.0,25.87,SSW,202,5.4,8.0,43,0.00,,,0.00,Rainwise IP-100,2013-10-07 15:38:00,
2013-10-07 09:43:00,59.2,36.0,25.87,South,180,2.8,8.0,41,0.00,,,0.00,Rainwise IP-100,2013-10-07 15:43:00,
2013-10-07 09:48:00,59.8,35.0,25.87,South,180,4.9,7.0,40,0.00,,,0.00,Rainwise IP-100,2013-10-07 15:48:00,
2013-10-07 09:53:00,60.2,35.0,25.87,SW,225,7.9,11.0,39,0.00,,,0.00,Rainwise IP-100,2013-10-07 15:53:00,
2013-10-07 09:58:00,60.7,35.0,25.87,SSE,157,7.2,10.0,38,0.00,,,0.00,Rainwise IP-100,2013-10-07 15:58:00,
2013-10-07 10:03:00,60.8,35.0,25.86,South,180,8.6,12.0,37,0.00,,,0.00,Rainwise IP-100,2013-10-07 16:03:00,
2013-10-07 10:08:00,61.1,35.0,25.87,SSW,202,3.7,9.0,37,0.00,,,0.00,Rainwise IP-100,2013-10-07 16:08:00,
2013-10-07 10:13:00,61.8,35.0,25.86,South,180,10.7,12.0,36,0.00,,,0.00,Rainwise IP-100,2013-10-07 16:13:00,
2013-10-07 10:18:00,62.4,35.0,25.86,SSW,202,6.3,11.0,35,0.00,,,0.00,Rainwise IP-100,2013-10-07 16:18:00,
2013-10-07 10:23:00,62.9,33.0,25.86,SSW,202,4.7,15.0,33,0.00,,,0.00,Rainwise IP-100,2013-10-07 16:23:00,
2013-10-07 10:28:00,63.2,33.0,25.86,SSW,202,4.4,12.0,32,0.00,,,0.00,Rainwise IP-100,2013-10-07 16:28:00,
2013-10-07 10:33:00,63.4,32.0,25.86,South,180,8.4,14.0,31,0.00,,,0.00,Rainwise IP-100,2013-10-07 16:33:00,
2013-10-07 10:38:00,63.9,33.0,25.86,SSW,202,10.3,11.0,31,0.00,,,0.00,Rainwise IP-100,2013-10-07 16:38:00,
2013-10-07 10:43:00,64.3,32.0,25.86,SSW,202,3.0,14.0,30,0.00,,,0.00,Rainwise IP-100,2013-10-07 16:43:00,
2013-10-07 10:48:00,64.5,32.0,25.85,South,180,11.9,13.0,29,0.00,,,0.00,Rainwise IP-100,2013-10-07 16:48:00,
2013-10-07 10:53:00,64.9,32.0,25.85,SSW,202,2.6,11.0,29,0.00,,,0.00,Rainwise IP-100,2013-10-07 16:53:00,
2013-10-07 10:58:00,65.2,31.0,25.85,SE,135,5.8,12.0,28,0.00,,,0.00,Rainwise IP-100,2013-10-07 16:58:00,
2013-10-07 11:03:00,65.5,32.0,25.85,SSW,202,9.8,14.0,28,0.00,,,0.00,Rainwise IP-100,2013-10-07 17:03:00,
2013-10-07 11:08:00,65.7,31.0,25.85,SSW,202,8.9,14.0,27,0.00,,,0.00,Rainwise IP-100,2013-10-07 17:08:00,
2013-10-07 11:13:00,66.0,31.0,25.85,SSW,202,7.9,12.0,26,0.00,,,0.00,Rainwise IP-100,2013-10-07 17:13:00,
2013-10-07 11:18:00,66.3,31.0,25.84,South,180,10.7,12.0,26,0.00,,,0.00,Rainwise IP-100,2013-10-07 17:18:00,
2013-10-07 11:23:00,66.5,31.0,25.84,South,180,4.0,13.0,25,0.00,,,0.00,Rainwise IP-100,2013-10-07 17:23:00,
2013-10-07 11:28:00,67.0,31.0,25.84,SSW,202,12.8,12.8,25,0.00,,,0.00,Rainwise IP-100,2013-10-07 17:28:00,
2013-10-07 11:33:00,67.4,31.0,25.84,South,180,4.4,12.0,25,0.00,,,0.00,Rainwise IP-100,2013-10-07 17:33:00,
2013-10-07 11:38:00,67.5,31.0,25.83,SE,135,9.8,13.0,25,0.00,,,0.00,Rainwise IP-100,2013-10-07 17:38:00,
2013-10-07 11:43:00,67.9,31.0,25.83,SSE,157,7.0,14.0,25,0.00,,,0.00,Rainwise IP-100,2013-10-07 17:43:00,
2013-10-07 11:48:00,68.0,31.0,25.83,SSW,202,11.4,14.0,25,0.00,,,0.00,Rainwise IP-100,2013-10-07 17:48:00,
2013-10-07 11:53:00,68.6,31.0,25.83,SSE,157,13.8,13.8,24,0.00,,,0.00,Rainwise IP-100,2013-10-07 17:53:00,
2013-10-07 11:58:00,69.5,31.0,25.82,South,180,9.8,13.0,23,0.00,,,0.00,Rainwise IP-100,2013-10-07 17:58:00,
2013-10-07 12:03:00,69.6,29.0,25.83,SW,225,5.8,13.0,22,0.00,,,0.00,Rainwise IP-100,2013-10-07 18:03:00,
2013-10-07 12:08:00,69.4,29.0,25.82,SSW,202,6.8,15.0,22,0.00,,,0.00,Rainwise IP-100,2013-10-07 18:08:00,
2013-10-07 12:13:00,69.6,28.0,25.82,South,180,6.8,14.0,21,0.00,,,0.00,Rainwise IP-100,2013-10-07 18:13:00,
2013-10-07 12:18:00,69.9,29.0,25.82,SSW,202,10.3,14.0,21,0.00,,,0.00,Rainwise IP-100,2013-10-07 18:18:00,
2013-10-07 12:23:00,70.1,28.0,25.82,SSW,202,8.2,16.0,20,0.00,,,0.00,Rainwise IP-100,2013-10-07 18:23:00,
2013-10-07 12:28:00,70.1,28.0,25.81,South,180,10.7,16.0,20,0.00,,,0.00,Rainwise IP-100,2013-10-07 18:28:00,
2013-10-07 12:33:00,70.0,26.0,25.81,South,180,8.9,17.0,19,0.00,,,0.00,Rainwise IP-100,2013-10-07 18:33:00,
2013-10-07 12:38:00,70.2,26.0,25.80,WSW,247,4.0,17.0,19,0.00,,,0.00,Rainwise IP-100,2013-10-07 18:38:00,
2013-10-07 12:43:00,70.3,26.0,25.80,SSW,202,4.2,12.0,19,0.00,,,0.00,Rainwise IP-100,2013-10-07 18:43:00,
2013-10-07 12:48:00,70.6,26.0,25.80,SSW,202,8.2,15.0,19,0.00,,,0.00,Rainwise IP-100,2013-10-07 18:48:00,
2013-10-07 12:53:00,71.1,26.0,25.80,South,180,5.1,12.0,18,0.00,,,0.00,Rainwise IP-100,2013-10-07 18:53:00,
2013-10-07 12:58:00,71.1,26.0,25.79,SSE,157,9.1,15.0,18,0.00,,,0.00,Rainwise IP-100,2013-10-07 18:58:00,
2013-10-07 13:03:00,71.4,26.0,25.79,SSW,202,6.5,15.0,18,0.00,,,0.00,Rainwise IP-100,2013-10-07 19:03:00,
2013-10-07 13:08:00,71.8,26.0,25.79,SSE,157,10.7,14.0,18,0.00,,,0.00,Rainwise IP-100,2013-10-07 19:08:00,
2013-10-07 13:13:00,71.9,24.0,25.79,South,180,9.3,12.0,17,0.00,,,0.00,Rainwise IP-100,2013-10-07 19:13:00,
2013-10-07 13:18:00,72.5,26.0,25.78,SSW,202,8.9,13.0,17,0.00,,,0.00,Rainwise IP-100,2013-10-07 19:18:00,
2013-10-07 13:23:00,72.8,26.0,25.78,SSW,202,8.6,12.0,17,0.00,,,0.00,Rainwise IP-100,2013-10-07 19:23:00,
2013-10-07 13:28:00,72.8,26.0,25.78,SSW,202,5.6,12.0,17,0.00,,,0.00,Rainwise IP-100,2013-10-07 19:28:00,
2013-10-07 13:33:00,73.1,24.0,25.77,SSE,157,13.5,13.5,16,0.00,,,0.00,Rainwise IP-100,2013-10-07 19:33:00,
2013-10-07 13:38:00,72.9,24.0,25.77,South,180,11.7,15.0,16,0.00,,,0.00,Rainwise IP-100,2013-10-07 19:38:00,
2013-10-07 13:43:00,72.9,24.0,25.77,SSE,157,7.7,13.0,16,0.00,,,0.00,Rainwise IP-100,2013-10-07 19:43:00,
2013-10-07 13:48:00,73.4,24.0,25.77,SSW,202,9.3,14.0,16,0.00,,,0.00,Rainwise IP-100,2013-10-07 19:48:00,
2013-10-07 13:53:00,73.6,24.0,25.76,SSE,157,9.3,12.0,16,0.00,,,0.00,Rainwise IP-100,2013-10-07 19:53:00,
2013-10-07 13:58:00,73.7,24.0,25.76,SSE,157,5.1,16.0,16,0.00,,,0.00,Rainwise IP-100,2013-10-07 19:58:00,
2013-10-07 14:03:00,74.0,24.0,25.76,South,180,5.8,13.0,15,0.00,,,0.00,Rainwise IP-100,2013-10-07 20:03:00,
2013-10-07 14:08:00,74.3,24.0,25.76,SSW,202,5.8,16.0,15,0.00,,,0.00,Rainwise IP-100,2013-10-07 20:08:00,
2013-10-07 14:13:00,74.5,24.0,25.76,South,180,9.8,16.0,15,0.00,,,0.00,Rainwise IP-100,2013-10-07 20:13:00,
2013-10-07 14:18:00,74.6,24.0,25.75,SSW,202,9.6,12.0,15,0.00,,,0.00,Rainwise IP-100,2013-10-07 20:18:00,
2013-10-07 14:23:00,74.8,24.0,25.75,SSW,202,10.7,14.0,15,0.00,,,0.00,Rainwise IP-100,2013-10-07 20:23:00,
2013-10-07 14:28:00,75.1,23.0,25.76,SSW,202,7.2,13.0,14,0.00,,,0.00,Rainwise IP-100,2013-10-07 20:28:00,
2013-10-07 14:33:00,75.3,23.0,25.75,SSW,202,11.9,13.0,14,0.00,,,0.00,Rainwise IP-100,2013-10-07 20:33:00,
2013-10-07 14:38:00,75.4,23.0,25.74,SSE,157,9.8,16.0,14,0.00,,,0.00,Rainwise IP-100,2013-10-07 20:38:00,
2013-10-07 14:43:00,75.5,23.0,25.74,SSE,157,8.6,17.0,14,0.00,,,0.00,Rainwise IP-100,2013-10-07 20:43:00,
2013-10-07 14:48:00,75.6,23.0,25.74,SSW,202,6.1,15.0,14,0.00,,,0.00,Rainwise IP-100,2013-10-07 20:48:00,
2013-10-07 14:53:00,75.8,23.0,25.74,SSE,157,11.9,14.0,14,0.00,,,0.00,Rainwise IP-100,2013-10-07 20:53:00,
2013-10-07 14:58:00,76.0,24.0,25.74,SSW,202,5.8,14.0,14,0.00,,,0.00,Rainwise IP-100,2013-10-07 20:58:00,
2013-10-07 15:03:00,76.4,24.0,25.74,SSW,202,8.4,12.0,14,0.00,,,0.00,Rainwise IP-100,2013-10-07 21:03:00,
2013-10-07 15:08:00,76.8,24.0,25.74,SSW,202,11.7,15.0,14,0.00,,,0.00,Rainwise IP-100,2013-10-07 21:08:00,
2013-10-07 15:13:00,76.7,24.0,25.74,SSW,202,4.4,14.0,14,0.00,,,0.00,Rainwise IP-100,2013-10-07 21:13:00,
2013-10-07 15:18:00,76.8,23.0,25.73,SSW,202,10.0,16.0,13,0.00,,,0.00,Rainwise IP-100,2013-10-07 21:18:00,
2013-10-07 15:23:00,77.2,23.0,25.74,SSW,202,4.2,13.0,13,0.00,,,0.00,Rainwise IP-100,2013-10-07 21:23:00,
2013-10-07 15:28:00,77.3,24.0,25.74,SSW,202,8.4,14.0,14,0.00,,,0.00,Rainwise IP-100,2013-10-07 21:28:00,
2013-10-07 15:33:00,77.1,23.0,25.73,WSW,247,6.1,13.0,13,0.00,,,0.00,Rainwise IP-100,2013-10-07 21:33:00,
2013-10-07 15:38:00,77.2,23.0,25.73,South,180,11.9,14.0,13,0.00,,,0.00,Rainwise IP-100,2013-10-07 21:38:00,
2013-10-07 15:43:00,77.5,23.0,25.73,SSW,202,4.7,11.0,13,0.00,,,0.00,Rainwise IP-100,2013-10-07 21:43:00,
2013-10-07 15:48:00,77.6,23.0,25.73,SSW,202,3.5,14.0,13,0.00,,,0.00,Rainwise IP-100,2013-10-07 21:48:00,
2013-10-07 15:53:00,77.5,23.0,25.72,SSW,202,8.4,15.0,13,0.00,,,0.00,Rainwise IP-100,2013-10-07 21:53:00,
2013-10-07 15:58:00,77.4,23.0,25.73,South,180,6.3,14.0,13,0.00,,,0.00,Rainwise IP-100,2013-10-07 21:58:00,
2013-10-07 16:03:00,77.4,23.0,25.72,South,180,6.5,12.0,13,0.00,,,0.00,Rainwise IP-100,2013-10-07 22:03:00,
2013-10-07 16:08:00,77.4,23.0,25.72,South,180,9.3,14.0,13,0.00,,,0.00,Rainwise IP-100,2013-10-07 22:08:00,
2013-10-07 16:13:00,77.1,23.0,25.72,SSW,202,8.4,14.0,13,0.00,,,0.00,Rainwise IP-100,2013-10-07 22:13:00,
2013-10-07 16:18:00,77.1,21.0,25.72,South,180,3.5,16.0,12,0.00,,,0.00,Rainwise IP-100,2013-10-07 22:18:00,
2013-10-07 16:23:00,77.3,21.0,25.71,SSE,157,11.0,14.0,12,0.00,,,0.00,Rainwise IP-100,2013-10-07 22:23:00,
2013-10-07 16:28:00,77.6,23.0,25.72,SSW,202,10.5,11.0,12,0.00,,,0.00,Rainwise IP-100,2013-10-07 22:28:00,
2013-10-07 16:33:00,77.6,23.0,25.71,SSE,157,11.2,15.0,12,0.00,,,0.00,Rainwise IP-100,2013-10-07 22:33:00,
2013-10-07 16:38:00,77.3,21.0,25.71,South,180,5.6,14.0,12,0.00,,,0.00,Rainwise IP-100,2013-10-07 22:38:00,
2013-10-07 16:43:00,77.1,21.0,25.71,South,180,2.8,12.0,12,0.00,,,0.00,Rainwise IP-100,2013-10-07 22:43:00,
2013-10-07 16:48:00,77.3,23.0,25.71,South,180,6.5,11.0,13,0.00,,,0.00,Rainwise IP-100,2013-10-07 22:48:00,
2013-10-07 16:53:00,77.5,23.0,25.71,SSW,202,5.8,12.0,13,0.00,,,0.00,Rainwise IP-100,2013-10-07 22:53:00,
2013-10-07 16:58:00,77.4,23.0,25.71,SSW,202,5.8,12.0,13,0.00,,,0.00,Rainwise IP-100,2013-10-07 22:58:00,
2013-10-07 17:03:00,77.3,23.0,25.71,SSW,202,7.9,12.0,13,0.00,,,0.00,Rainwise IP-100,2013-10-07 23:03:00,
2013-10-07 17:08:00,77.2,23.0,25.71,South,180,9.1,14.0,13,0.00,,,0.00,Rainwise IP-100,2013-10-07 23:08:00,
2013-10-07 17:13:00,77.1,23.0,25.70,South,180,10.5,11.0,13,0.00,,,0.00,Rainwise IP-100,2013-10-07 23:13:00,
2013-10-07 17:18:00,77.0,23.0,25.70,SSE,157,7.9,15.0,13,0.00,,,0.00,Rainwise IP-100,2013-10-07 23:18:00,
2013-10-07 17:23:00,76.9,23.0,25.70,SSE,157,6.8,11.0,13,0.00,,,0.00,Rainwise IP-100,2013-10-07 23:23:00,
2013-10-07 17:28:00,76.8,24.0,25.70,South,180,6.1,13.0,14,0.00,,,0.00,Rainwise IP-100,2013-10-07 23:28:00,
2013-10-07 17:33:00,76.6,24.0,25.70,SSE,157,6.1,9.0,14,0.00,,,0.00,Rainwise IP-100,2013-10-07 23:33:00,
2013-10-07 17:38:00,76.5,24.0,25.70,SSE,157,4.2,8.0,14,0.00,,,0.00,Rainwise IP-100,2013-10-07 23:38:00,
2013-10-07 17:43:00,76.3,24.0,25.70,SSE,157,4.0,8.0,14,0.00,,,0.00,Rainwise IP-100,2013-10-07 23:43:00,
2013-10-07 17:48:00,76.2,24.0,25.70,SSE,157,3.5,8.0,14,0.00,,,0.00,Rainwise IP-100,2013-10-07 23:48:00,
2013-10-07 17:53:00,75.9,24.0,25.70,South,180,4.4,6.0,14,0.00,,,0.00,Rainwise IP-100,2013-10-07 23:53:00,
2013-10-07 17:58:00,75.5,24.0,25.70,SSE,157,3.7,6.0,15,0.00,,,0.00,Rainwise IP-100,2013-10-07 23:58:00,
2013-10-07 18:03:00,75.2,24.0,25.70,SSE,157,4.0,6.0,15,0.00,,,0.00,Rainwise IP-100,2013-10-08 00:03:00,
2013-10-07 18:08:00,74.8,24.0,25.69,SSE,157,3.5,5.0,15,0.00,,,0.00,Rainwise IP-100,2013-10-08 00:08:00,
2013-10-07 18:13:00,74.3,24.0,25.70,SSE,157,2.1,5.0,15,0.00,,,0.00,Rainwise IP-100,2013-10-08 00:13:00,
2013-10-07 18:18:00,73.8,24.0,25.70,SSE,157,1.6,3.0,16,0.00,,,0.00,Rainwise IP-100,2013-10-08 00:18:00,
2013-10-07 18:23:00,73.1,24.0,25.70,SSE,157,1.4,3.0,16,0.00,,,0.00,Rainwise IP-100,2013-10-08 00:23:00,
2013-10-07 18:28:00,72.2,26.0,25.70,SE,135,2.8,2.8,17,0.00,,,0.00,Rainwise IP-100,2013-10-08 00:28:00,
2013-10-07 18:33:00,71.6,26.0,25.70,SE,135,3.5,3.5,18,0.00,,,0.00,Rainwise IP-100,2013-10-08 00:33:00,
2013-10-07 18:38:00,71.3,26.0,25.70,ESE,112,2.8,4.0,18,0.00,,,0.00,Rainwise IP-100,2013-10-08 00:38:00,
2013-10-07 18:43:00,70.9,26.0,25.70,ESE,112,4.9,4.9,18,0.00,,,0.00,Rainwise IP-100,2013-10-08 00:43:00,
2013-10-07 18:48:00,70.6,26.0,25.70,ESE,112,3.3,5.0,19,0.00,,,0.00,Rainwise IP-100,2013-10-08 00:48:00,
2013-10-07 18:53:00,69.9,26.0,25.70,SE,135,2.3,5.0,19,0.00,,,0.00,Rainwise IP-100,2013-10-08 00:53:00,
2013-10-07 18:58:00,69.1,26.0,25.71,ESE,112,3.3,6.0,20,0.00,,,0.00,Rainwise IP-100,2013-10-08 00:58:00,
2013-10-07 19:03:00,68.3,26.0,25.70,SSE,157,2.3,4.0,21,0.00,,,0.00,Rainwise IP-100,2013-10-08 01:03:00,
2013-10-07 19:08:00,67.7,26.0,25.70,ESE,112,3.3,6.0,21,0.00,,,0.00,Rainwise IP-100,2013-10-08 01:08:00,
2013-10-07 19:13:00,67.1,28.0,25.70,ESE,112,3.5,7.0,22,0.00,,,0.00,Rainwise IP-100,2013-10-08 01:13:00,
2013-10-07 19:18:00,66.6,28.0,25.70,SE,135,6.3,7.0,22,0.00,,,0.00,Rainwise IP-100,2013-10-08 01:18:00,
2013-10-07 19:23:00,65.7,26.0,25.70,ESE,112,3.0,7.0,23,0.00,,,0.00,Rainwise IP-100,2013-10-08 01:23:00,
2013-10-07 19:28:00,64.8,28.0,25.70,ESE,112,4.2,6.0,24,0.00,,,0.00,Rainwise IP-100,2013-10-08 01:28:00,
2013-10-07 19:33:00,64.0,28.0,25.70,ESE,112,6.5,6.5,25,0.00,,,0.00,Rainwise IP-100,2013-10-08 01:33:00,
2013-10-07 19:38:00,63.3,28.0,25.70,SE,135,1.9,6.0,25,0.00,,,0.00,Rainwise IP-100,2013-10-08 01:38:00,
2013-10-07 19:43:00,62.7,28.0,25.70,SE,135,5.6,8.0,26,0.00,,,0.00,Rainwise IP-100,2013-10-08 01:43:00,
2013-10-07 19:48:00,62.2,28.0,25.70,SE,135,2.8,8.0,27,0.00,,,0.00,Rainwise IP-100,2013-10-08 01:48:00,
2013-10-07 19:53:00,61.7,28.0,25.70,ESE,112,6.3,7.0,27,0.00,,,0.00,Rainwise IP-100,2013-10-08 01:53:00,
2013-10-07 19:58:00,61.1,28.0,25.70,SE,135,2.1,8.0,28,0.00,,,0.00,Rainwise IP-100,2013-10-08 01:58:00,
2013-10-07 20:03:00,60.6,28.0,25.70,SSE,157,2.1,9.0,28,0.00,,,0.00,Rainwise IP-100,2013-10-08 02:03:00,
2013-10-07 20:08:00,60.3,28.0,25.70,SE,135,1.4,8.0,28,0.00,,,0.00,Rainwise IP-100,2013-10-08 02:08:00,
2013-10-07 20:13:00,59.9,28.0,25.70,SE,135,5.6,8.0,28,0.00,,,0.00,Rainwise IP-100,2013-10-08 02:13:00,
2013-10-07 20:18:00,59.6,28.0,25.70,SE,135,4.4,8.0,29,0.00,,,0.00,Rainwise IP-100,2013-10-08 02:18:00,
2013-10-07 20:23:00,59.2,28.0,25.70,SE,135,2.1,7.0,29,0.00,,,0.00,Rainwise IP-100,2013-10-08 02:23:00,
2013-10-07 20:28:00,58.8,28.0,25.71,SE,135,1.2,5.0,29,0.00,,,0.00,Rainwise IP-100,2013-10-08 02:28:00,
2013-10-07 20:33:00,58.3,28.0,25.70,SE,135,1.6,6.0,30,0.00,,,0.00,Rainwise IP-100,2013-10-08 02:33:00,
2013-10-07 20:38:00,57.8,26.0,25.70,SE,135,2.3,4.0,30,0.00,,,0.00,Rainwise IP-100,2013-10-08 02:38:00,
2013-10-07 20:43:00,57.3,28.0,25.70,SE,135,2.6,5.0,31,0.00,,,0.00,Rainwise IP-100,2013-10-08 02:43:00,
2013-10-07 20:48:00,57.0,28.0,25.70,SSE,157,1.6,5.0,31,0.00,,,0.00,Rainwise IP-100,2013-10-08 02:48:00,
2013-10-07 20:53:00,56.7,28.0,25.70,SSE,157,0.0,5.0,32,0.00,,,0.00,Rainwise IP-100,2013-10-08 02:53:00,
2013-10-07 20:58:00,56.4,28.0,25.70,SSE,157,2.8,8.0,32,0.00,,,0.00,Rainwise IP-100,2013-10-08 02:58:00,
2013-10-07 21:03:00,56.2,26.0,25.70,SSE,157,4.9,7.0,32,0.00,,,0.00,Rainwise IP-100,2013-10-08 03:03:00,
2013-10-07 21:08:00,56.0,28.0,25.70,SSE,157,4.2,9.0,33,0.00,,,0.00,Rainwise IP-100,2013-10-08 03:08:00,
2013-10-07 21:13:00,55.7,28.0,25.70,SSE,157,4.4,7.0,33,0.00,,,0.00,Rainwise IP-100,2013-10-08 03:13:00,
2013-10-07 21:18:00,55.6,28.0,25.70,South,180,2.8,10.0,33,0.00,,,0.00,Rainwise IP-100,2013-10-08 03:18:00,
2013-10-07 21:23:00,55.5,28.0,25.70,South,180,2.8,7.0,33,0.00,,,0.00,Rainwise IP-100,2013-10-08 03:23:00,
2013-10-07 21:28:00,55.2,28.0,25.70,SE,135,1.4,8.0,34,0.00,,,0.00,Rainwise IP-100,2013-10-08 03:28:00,
2013-10-07 21:33:00,55.1,28.0,25.70,SSE,157,7.2,8.0,34,0.00,,,0.00,Rainwise IP-100,2013-10-08 03:33:00,
2013-10-07 21:38:00,55.3,28.0,25.70,SSE,157,4.7,10.0,34,0.00,,,0.00,Rainwise IP-100,2013-10-08 03:38:00,
2013-10-07 21:43:00,55.3,28.0,25.69,SSE,157,3.0,7.0,33,0.00,,,0.00,Rainwise IP-100,2013-10-08 03:43:00,
2013-10-07 21:48:00,55.1,28.0,25.69,South,180,4.0,8.0,33,0.00,,,0.00,Rainwise IP-100,2013-10-08 03:48:00,
2013-10-07 21:53:00,54.6,28.0,25.69,SE,135,2.3,7.0,34,0.00,,,0.00,Rainwise IP-100,2013-10-08 03:53:00,
2013-10-07 21:58:00,54.1,26.0,25.69,SSE,157,3.3,6.0,34,0.00,,,0.00,Rainwise IP-100,2013-10-08 03:58:00,
2013-10-07 22:01:00,53.9,26.0,25.69,East,90,4.2,8.0,34,0.00,,,0.00,Rainwise IP-100,2013-10-08 04:01:00,
2013-10-07 22:02:00,53.8,26.0,25.69,SSE,157,2.8,8.0,35,0.00,,,0.00,Rainwise IP-100,2013-10-08 04:02:00,
2013-10-07 22:07:00,53.4,26.0,25.68,SE,135,2.6,6.0,35,0.00,,,0.00,Rainwise IP-100,2013-10-08 04:07:00,
2013-10-07 22:12:00,53.1,26.0,25.68,SSE,157,5.1,6.0,35,0.00,,,0.00,Rainwise IP-100,2013-10-08 04:12:00,
2013-10-07 22:17:00,52.8,26.0,25.69,SE,135,1.4,7.0,36,0.00,,,0.00,Rainwise IP-100,2013-10-08 04:17:00,
2013-10-07 22:22:00,52.4,26.0,25.68,ESE,112,1.2,6.0,36,0.00,,,0.00,Rainwise IP-100,2013-10-08 04:22:00,
2013-10-07 22:27:00,51.9,26.0,25.68,SSE,157,1.4,5.0,37,0.00,,,0.00,Rainwise IP-100,2013-10-08 04:27:00,
2013-10-07 22:32:00,51.4,26.0,25.69,SE,135,2.6,5.0,37,0.00,,,0.00,Rainwise IP-100,2013-10-08 04:32:00,
2013-10-07 22:37:00,51.0,26.0,25.68,SSE,157,2.8,4.0,38,0.00,,,0.00,Rainwise IP-100,2013-10-08 04:37:00,
2013-10-07 22:42:00,50.7,26.0,25.68,SSE,157,2.8,4.0,39,0.00,,,0.00,Rainwise IP-100,2013-10-08 04:42:00,
2013-10-07 22:47:00,50.4,26.0,25.68,SSE,157,4.9,5.0,39,0.00,,,0.00,Rainwise IP-100,2013-10-08 04:47:00,
2013-10-07 22:52:00,50.3,26.0,25.68,SSE,157,4.2,6.0,40,0.00,,,0.00,Rainwise IP-100,2013-10-08 04:52:00,
2013-10-07 22:57:00,50.2,26.0,25.68,SSE,157,3.0,5.0,40,0.00,,,0.00,Rainwise IP-100,2013-10-08 04:57:00,
2013-10-07 23:02:00,50.2,26.0,25.68,SSE,157,3.7,6.0,40,0.00,,,0.00,Rainwise IP-100,2013-10-08 05:02:00,
2013-10-07 23:07:00,50.2,26.0,25.68,SSE,157,4.2,6.0,40,0.00,,,0.00,Rainwise IP-100,2013-10-08 05:07:00,
2013-10-07 23:12:00,50.3,26.0,25.67,SSE,157,6.5,7.0,40,0.00,,,0.00,Rainwise IP-100,2013-10-08 05:12:00,
2013-10-07 23:17:00,50.4,28.0,25.67,SSE,157,6.3,7.0,40,0.00,,,0.00,Rainwise IP-100,2013-10-08 05:17:00,
2013-10-07 23:22:00,50.6,28.0,25.67,SSE,157,5.4,8.0,40,0.00,,,0.00,Rainwise IP-100,2013-10-08 05:22:00,
2013-10-07 23:27:00,50.5,28.0,25.67,SSE,157,5.8,9.0,40,0.00,,,0.00,Rainwise IP-100,2013-10-08 05:27:00,
2013-10-07 23:32:00,50.2,26.0,25.67,SSE,157,4.2,7.0,40,0.00,,,0.00,Rainwise IP-100,2013-10-08 05:32:00,
2013-10-07 23:37:00,50.2,26.0,25.67,South,180,4.4,6.0,40,0.00,,,0.00,Rainwise IP-100,2013-10-08 05:37:00,
2013-10-07 23:42:00,50.1,26.0,25.66,South,180,2.3,5.0,40,0.00,,,0.00,Rainwise IP-100,2013-10-08 05:42:00,
2013-10-07 23:47:00,49.9,26.0,25.67,South,180,0.0,4.0,40,0.00,,,0.00,Rainwise IP-100,2013-10-08 05:47:00,
2013-10-07 23:52:00,49.6,28.0,25.67,SSW,202,1.4,4.0,41,0.00,,,0.00,Rainwise IP-100,2013-10-08 05:52:00,
2013-10-07 23:57:00,49.3,26.0,25.66,SSW,202,1.6,2.0,41,0.00,,,0.00,Rainwise IP-100,2013-10-08 05:57:00,